CDT,Max TemperatureF,Mean TemperatureF,Min TemperatureF,Max Dew PointF,MeanDew PointF,Min DewpointF,Max Humidity, Mean Humidity, Min Humidity, Max Sea Level PressureIn, Mean Sea Level PressureIn, Min Sea Level PressureIn, Max VisibilityMiles, Mean VisibilityMiles, Min VisibilityMiles, Max Wind SpeedMPH, Mean Wind SpeedMPH, Max Gust SpeedMPH,PrecipitationIn, CloudCover, Events, WindDirDegrees
2012-8-1,98,81,63,67,61,53,93,58,22,29.97,29.91,29.83,10,10,10,9,5,,0.00,0,,86
2012-8-2,91,80,68,69,64,58,90,67,44,29.85,29.80,29.77,10,10,10,8,3,10,T,1,,108
2012-8-3,97,82,67,73,68,62,100,67,33,29.86,29.82,29.79,10,7,0,14,5,18,0.00,0,Fog,111
2012-8-4,92,81,70,74,71,66,94,73,52,30.04,29.86,29.78,10,10,6,17,7,24,T,1,Rain-Thunderstorm,53
2012-8-5,88,74,59,61,56,51,97,64,30,30.19,30.13,30.03,10,10,10,16,7,23,0.00,0,,338
2012-8-6,93,73,53,57,53,50,93,59,25,30.19,30.11,30.01,10,10,10,9,3,13,0.00,0,,66
2012-8-7,101,81,60,59,55,50,84,52,19,30.03,29.97,29.92,10,10,10,18,4,25,0.00,0,Thunderstorm,246
2012-8-8,81,74,66,70,66,60,93,79,64,30.07,29.97,29.90,10,10,9,18,7,37,0.12,4,Rain-Thunderstorm,68
2012-8-9,85,75,64,66,63,57,100,75,49,29.95,29.91,29.89,10,10,10,18,8,24,0.00,1,,338
2012-8-10,80,69,58,61,56,51,100,70,40,30.06,30.02,29.95,10,10,7,18,8,23,0.00,4,,360
2012-8-11,85,69,52,56,51,47,100,64,28,30.10,30.04,29.98,10,10,10,13,4,16,0.00,0,,360
2012-8-12,85,73,61,64,58,50,93,67,40,30.01,29.94,29.83,10,10,4,17,8,23,0.09,6,Rain-Thunderstorm,122
2012-8-13,71,62,53,63,59,53,100,83,66,30.06,29.96,29.84,10,5,0,17,8,23,0.00,5,Fog,4
2012-8-14,82,67,52,59,54,52,100,70,39,30.05,30.01,29.95,10,7,0,12,6,16,0.00,1,Fog,258
2012-8-15,92,72,52,59,57,53,100,66,32,29.99,29.91,29.83,10,10,4,17,6,23,0.00,0,,194
2012-8-16,79,66,53,66,58,51,75,61,46,30.07,29.93,29.80,10,10,10,17,9,25,T,2,,325
2012-8-17,81,63,45,52,45,36,100,61,21,30.12,30.07,30.02,10,10,10,13,6,18,0.00,0,,351
2012-8-18,80,63,46,52,44,39,93,58,23,30.07,30.01,29.95,10,10,10,13,4,17,T,1,Rain,39
2012-8-19,83,68,52,55,49,42,89,57,24,30.04,30.00,29.96,10,10,10,17,7,23,T,3,,1
2012-8-20,85,67,49,53,49,47,93,61,28,30.04,30.00,29.95,10,10,10,14,5,18,0.00,1,,334
2012-8-21,89,73,57,51,47,42,72,47,21,30.07,30.04,30.01,10,10,10,12,5,18,0.00,1,,90
2012-8-22,97,76,55,53,47,43,72,44,16,30.06,30.02,29.97,10,10,10,14,4,18,0.00,1,,163
2012-8-23,96,79,62,52,49,44,63,41,19,30.07,30.01,29.96,10,10,10,22,8,31,0.00,2,,199
2012-8-24,91,78,64,54,51,45,59,41,22,30.03,29.97,29.92,10,10,10,17,7,28,0.00,0,,193
2012-8-25,90,76,61,71,63,52,93,67,40,29.98,29.94,29.91,10,9,1,24,9,30,0.25,4,Rain,152
2012-8-26,78,73,67,73,71,66,100,91,82,30.04,29.98,29.93,10,7,0,15,6,24,0.41,6,Fog-Rain,205
2012-8-27,90,77,63,68,64,58,100,67,34,30.17,30.11,30.04,10,7,0,12,3,16,0.00,2,Fog,32
2012-8-28,94,77,60,65,60,57,100,65,30,30.17,30.10,30.01,10,10,5,9,2,14,0.00,0,,93
2012-8-29,95,79,62,64,59,56,84,56,28,30.06,30.01,29.94,10,10,10,14,6,18,0.00,0,,159
2012-8-30,99,82,64,63,57,52,87,54,21,30.02,29.97,29.91,10,10,10,31,8,83,0.00,0,,165
2012-8-31,78,71,64,72,69,56,100,79,57,30.05,29.96,29.89,10,6,0,21,9,29,1.61,6,Fog-Rain,82